Regional Weather Roundup
Issued by NWS

Home | Current Version | Previous Version | Graphics & Text | Print | Product List | Glossary On
Versions: 1 2 3 4 5 6 7 8 9 10 11 12 13 14 15 16 17 18 19 20 21 22 23 24 25 26 27 28 29 30 31 32 33 34 35 36 37 38 39 40 41 42 43 44 45 46 47 48 49
000
ASUS45 KBOU 230407
RWRCO

WEATHER ROUNDUP FOR COLORADO
NATIONAL WEATHER SERVICE DENVER/BOULDER CO
900 PM MST SAT NOV 22 2014

NOTE: "FAIR" INDICATES FEW OR NO CLOUDS BELOW 12000 FEET WITH NO
SIGNIFICANT WEATHER AND/OR OBSTRUCTIONS TO VISIBILITY.

COZ001>005-013-030-031-230500-
...NORTHWEST COLORADO...

CITY           SKY/WX    TMP DP  RH WIND       PRES   REMARKS
CRAIG          LGT SNOW  33  30  88 NW13      29.78R FOG     WCI  24
HAYDEN         CLOUDY    32  28  86 W14G24    29.76R VSB 1   WCI  22
MEEKER         LGT SNOW  34  31  88 W7        29.78R FOG     WCI  28
MOUNT WERNER   NOT AVBL
STEAMBOAT SPGS CLOUDY    32  31  97 W8        29.74R WCI  25
WALDEN         CLOUDY    30  28  93 SW8       29.69R WCI  23
$$

COZ006>008-011-230500-
...WEST CENTRAL VALLEYS...

CITY           SKY/WX    TMP DP  RH WIND       PRES   REMARKS
GRAND JUNCTION MOCLDY    32  32 100 CALM      29.79F
MONTROSE       CLOUDY    39  30  70 E6        29.80F
EAGLE          CLOUDY    34  32  93 CALM      29.78F
RIFLE          LGT RAIN  34  33  96 E3        29.80R
DELTA          CLOUDY    43  34  70 NE12      29.81S
NUCLA          CLOUDY    46  21  36 SW5       29.82F
$$

COZ017>023-064>068-230500-
...SOUTHWEST COLORADO...

CITY           SKY/WX    TMP DP  RH WIND       PRES   REMARKS
DURANGO        MOCLDY    35  22  58 NE5       29.87F WCI  31
CORTEZ         MOCLDY    36  25  64 VRB3      29.86F
PAGOSA SPRINGS FLURRIES  35  23  60 NW5G17    29.90F WCI  31
TELLURIDE      CLOUDY    32  29  89 SE7       29.90F WCI  26
WOLF CREEK PAS LGT SNOW  18  16  93 SW21G31   29.91F WCI   1
$$

COZ009-010-012-014-032>034-037-058>063-230500-
...CENTRAL COLORADO...

CITY           SKY/WX    TMP DP  RH WIND       PRES   REMARKS
ASPEN          FLURRIES  31  29  92 NW5       29.74F WCI  26
BUENA VISTA    LGT SNOW  33  29  84 W13G18    29.74F WCI  24
COPPER MTN     LGT SNOW  27  19  74 W23G36    29.78F VSB 1   WCI  12
BERTHOUD PASS  LGT SNOW  19  14  79 W30G39    29.74F WCI   0
COTTONWOOD PAS   N/A     32  28  86 W7G16     29.76F WCI  26
GUNNISON       CLOUDY    30  25  80 N5        29.85S WCI  25
KREMMLING      MOCLDY    34  28  80 W6        29.71F WCI  29
LEADVILLE      LGT SNOW  24  23  96 NE3       29.75F FOG
MONARCH PASS   CLOUDY    19  18  93 MISG      29.92F
SALIDA         MOCLDY    36  29  75 SW15      29.81F
SUNLIGHT       HVY SNOW  28  27  93 SW3       29.80R VSB 1/4
WILKERSON PASS MOCLDY    23  21  93 W13G18    29.74F WCI  11
$$

COZ069>075-230500-
...SAN LUIS VALLEY/SANGRE DE CRISTO MOUNTAINS...

CITY           SKY/WX    TMP DP  RH WIND       PRES   REMARKS
ALAMOSA        PTCLDY    23  12  62 SW5       29.80F WCI  17
LA VETA PASS   PTCLDY    28  14  54 S13G26    29.79F WCI  18
SAGUACHE       NOT AVBL
$$

COZ035-036-038>040-230500-
...NORTHERN COLORADO FRONT RANGE...

CITY           SKY/WX    TMP DP  RH WIND       PRES   REMARKS
DENVER INTL AP CLOUDY    50  25  37 NW12      29.57F
DMNS CITY PARK   N/A     45  25  45 SE2G10    29.56F
AURORA         MOCLDY    45  25  46 NW5       29.59F
FRONT RANGE AP CLOUDY    46  30  53 NW10      29.57F
ERIE MUNI ARPT MOCLDY    49  24  38 CALM      29.57F
BOULDER MUN AP MOCLDY    46  27  46 N3        29.55F
CENTENNIAL     MOCLDY    39  26  59 S5        29.58F
BROOMFIELD     NOT AVBL
FORT COLLINS   PTCLDY    43  25  49 S7        29.57F
LONGMONT       PTCLDY    47  28  48 W5        29.58F
$$

COZ041-046-047-076>085-087-088-230500-
...PIKES PEAK/PALMER DIVIDE AND SOUTHERN FOOTHILLS...

CITY           SKY/WX    TMP DP  RH WIND       PRES   REMARKS
COLO. SPRINGS  CLOUDY    51  21  30 N23G33    29.63R
A. F. ACADEMY  CLOUDY    46  21  37 W12G25    29.63F
ELLICOTT       NOT AVBL
FALCON         NOT AVBL
FORT CARSON    CLOUDY    49  20  31 S6        29.60F
LIMON          CLOUDY    43  22  43 W13       29.57F
MONUMENT HILL  CLOUDY    37  21  52 SW10      29.63F
TRINIDAD       MOCLDY    43  19  38 W13       29.64F
$$

COZ042>045-048>051-090-091-230500-
...NORTHEAST COLORADO...

CITY           SKY/WX    TMP DP  RH WIND       PRES   REMARKS
GREELEY ARPT   MOCLDY    34  21  60 NW6       29.57S WCI  29
AKRON          CLOUDY    43  18  36 CALM      29.55F
BURLINGTON     CLOUDY    44  18  35 W8        29.53S
WRAY           CLOUDY    48  14  25 N5        29.52R
STERLING       CLOUDY    41  23  48 W5        29.54R
HOLYOKE        CLOUDY    43  19  39 E8        29.50F
FORT MORGAN    CLOUDY    37  19  50 W7        29.56F
$$

COZ086-089-092>099-230500-
...SOUTHEAST COLORADO...

CITY           SKY/WX    TMP DP  RH WIND       PRES   REMARKS
PUEBLO         CLOUDY    54  27  35 NW17      29.59S
LA JUNTA       CLOUDY    55  25  31 W21       29.53S
LAMAR          CLOUDY    45  27  49 S9        29.48F
SPRINGFIELD      N/A     44  23  43 W8        29.56F
$$



USA.gov is the U.S. government's official web portal to all federal, state and local government web resources and services.